User: anonymous   Login
Location: Caltech
(34.1382°N, 118.1253°W)
Time: 10:30:02
(UTC-08:00)
Language:

SEDSat Delta rocket - Orbit

View from above orbital plane
View from above orbital plane
View from above satellite
View from above satellite

Ground track
Ground track

The orbit data is extracted from the following two-line orbital elements,

1 25510U 98061C   14329.71380454  .00000738  00000-0  12232-3 0   103
2 25510 031.4346 096.9385 0332150 078.6474 062.3769 14.36009043842812
Epoch (UTC): 25 November 2014 17:07:52
Eccentricity: 0.0332150
inclination: 31.4346°
perigee height: 534 km
apogee height: 1009 km
right ascension of ascending node: 96.9385°
argument of perigee: 78.6474°
revolutions per day: 14.36009043
mean anomaly at epoch: 62.3769°
orbit number at epoch: 84281

The dashed part of the orbit path shows where the satellite is in the earth's shadow,  

DLR